Flag for Czech Republic Weather past 2 weeks in Tábor, Czech Republic

Now
36 °F

Fog.


Feels Like: N/A
Forecast: 39 / 62 °F
Wind: N/A

Location: Kocelovice


UV Index: 0 (Low)

Visibility: 0 mi


Pressure: 29.99 "Hg

Humidity: 100%

Dew point: 36 °F

Location of TáborLocation

Historic Weather in Tábor

°F

Tábor temperature yesterday

Maximum temperature yesterday: 44 °F (at 11:00 AM)
Minimum temperature yesterday: 30 °F (at 4:00 AM)
Average temperature yesterday: 37 °F

Past Weeks' High & Low Weather Summary

 TemperatureHumidityPressure
High67 °F (Apr 4, 4:00 PM)100% (Apr 19, 4:00 AM)30.44 "Hg (Apr 19, 4:00 AM)
Low28 °F (Apr 17, 6:00 AM)29% (Apr 17, 5:00 PM)29.70 "Hg (Apr 4, 5:00 PM)
Average46 °F70%30.06 "Hg
* Reported Apr 4 9:00 AM — Apr 19 9:00 AM, Tábor, Weather by CustomWeather, © 2014

Note: Actual official high and low records may vary slightly from our data, if they occured in-between our weather recording intervals... More about our weather records

Advertising

Historic Weather Conditions — Data for Previous 24 hours

 ConditionsComfort  
Time TempWeatherWind HumidityBarometerVisibility
9:00 AM
Apr 19
36 °FFog.N/A100%29.99 "Hg0 mi
8:00 AM33 °FFog.N/A100%30.01 "Hg0 mi
7:00 AM31 °FDuststorm.N/A100%30.01 "Hg0 mi
6:00 AM33 °FDuststorm.2 mph100%29.99 "Hg0 mi
5:00 AM34 °FDuststorm.1 mph100%29.98 "Hg0 mi
4:00 AM35 °FChilly.1 mph100%29.99 "Hg1 mi
3:00 AM34 °FDuststorm.3 mph98%29.99 "Hg0 mi
2:00 AM36 °FFog.2 mph96%29.98 "Hg1 mi
1:00 AM37 °FRain showers. Overcast.1 mph95%29.98 "Hg3 mi
12:00 AM37 °FFog.1 mph96%29.96 "Hg2 mi
10:00 PM
Apr 18
38 °FOvercast.3 mph93%29.94 "Hg7 mi
9:00 PM39 °FOvercast.3 mph92%29.93 "Hg11 mi
8:00 PM40 °FOvercast.2 mph90%29.90 "Hg14 mi
7:00 PM41 °FOvercast.2 mph83%29.89 "Hg16 mi
6:00 PM41 °FOvercast.N/A80%29.87 "Hg14 mi
5:00 PM40 °FOvercast.2 mph84%29.86 "Hg14 mi
4:00 PM40 °FLight rain. Overcast.2 mph88%29.87 "Hg12 mi
3:00 PM40 °FLight rain. Overcast.5 mph87%29.85 "Hg11 mi
2:00 PM40 °FLight rain. Overcast.6 mph88%29.85 "Hg7 mi
1:00 PM41 °FLight rain. Overcast.5 mph85%29.84 "Hg8 mi
12:00 PM43 °FLight rain. Overcast.N/A75%29.83 "Hg12 mi
11:00 AM44 °FLight rain. Overcast.5 mph62%29.83 "Hg16 mi
10:00 AM41 °FLight rain. Overcast.N/A66%29.85 "Hg31 mi
Weather by CustomWeather, © 2014

See weather overview